Regional Weather Roundup
Issued by NWS

Home | Current Version | Previous Version | Text Only | Print | Product List | Glossary On
Versions: 1 2 3 4 5 6 7 8 9 10 11 12 13 14 15 16 17 18 19 20 21 22 23 24 25 26 27 28 29 30 31 32 33 34 35 36 37 38 39 40 41 42 43 44 45 46 47 48 49 50
000
ASUS43 KBIS 010610
RWRND

NORTH DAKOTA REGIONAL WEATHER ROUNDUP
NATIONAL WEATHER SERVICE BISMARCK ND
100 AM CDT WED JUL 01 2015

NOTE: "FAIR" INDICATES FEW OR NO CLOUDS BELOW 12,000 FEET WITH NO
SIGNIFICANT WEATHER AND/OR OBSTRUCTIONS TO VISIBILITY.


NDZ001>003-009>011-017-010700-
NORTHWEST NORTH DAKOTA

CITY           SKY/WX    TMP DP  RH WIND       PRES   REMARKS
WILLISTON      MOCLDY    67  60  78 NE6       29.92
6HR MIN TEMP:  66; 6HR MAX TEMP:  74; 6HR PCP: TRACE;

MINOT          PTCLDY    64  62  93 SW3       29.90R FOG
MINOT AFB      MOCLDY    64  64 100 NE2       29.90R FOG
$$

NDZ018>021-031>035-040>046-010700-
SOUTHWEST NORTH DAKOTA

CITY           SKY/WX    TMP DP  RH WIND       PRES   REMARKS
BISMARCK       MOCLDY    64  63  96 SE12      29.90F
6HR MIN TEMP:  64; 6HR MAX TEMP:  73; 6HR PCP:  0.15;

DICKINSON      CLOUDY    64  62  93 E13       29.90S FOG
GARRISON         N/A     62  60  93 CALM      29.91R
6HR MIN TEMP:  61; 6HR MAX TEMP:  68; 6HR PCP:  0.10;

HETTINGER ARPT PTCLDY    63  60  90 E8        29.92
$$

NDZ004>008-012>016-024-026-027-054-010700-
NORTHEAST NORTH DAKOTA

CITY           SKY/WX    TMP DP  RH WIND       PRES   REMARKS
GRAND FORKS    MOCLDY    61  58  90 CALM      29.91
GRND FRKS AFB  MOCLDY    61  59  94 CALM      29.92S
DEVILS LAKE    CLOUDY    63  55  77 SE7       29.91S
$$

NDZ022-023-025-028>030-036>039-047>053-010700-
SOUTHEAST NORTH DAKOTA

CITY           SKY/WX    TMP DP  RH WIND       PRES   REMARKS
FARGO          CLOUDY    66  60  81 CALM      29.91
6HR MIN TEMP:  65; 6HR MAX TEMP:  73;

JAMESTOWN      LGT RAIN  65  62  90 CALM      29.93S FOG
$$




USA.gov is the U.S. government's official web portal to all federal, state and local government web resources and services.